[[{"header":{"parameterUnit":"m.s-1","parameterCategory":1,"la1":30.2991,"la2":30.254,"lo1":-89.0895,"lo2":-89.0444,"dy":0.0017,"dx":0.0017,"nx":28,"ny":28,"refTime":"2025-04-29T03:00:00:Z","depth":0,"parameterNumber":2,"parameterNumberName":"U-component_of_WINDS"},"data":[0,0,0,0,0,0,0,0,0,0,0,0,0,0,0,0,0,0,0,0,0,0,0,0,0,0,0,0,0,0,0,0,0,0,0,0,0,0,0,0,0,0,0,0,0,0,0,0,0,0,0,0,0,0,0,0,0,0,-2.4779,-2.4779,0,-2.4788,-2.4789,-2.4789,-2.4764,-2.4763,-2.4763,-2.4762,-2.4771,-2.4772,-2.4773,0,0,0,0,0,0,0,0,0,0,0,0,0,-2.4741,-2.4742,-2.4779,-2.4779,-2.4779,-2.4788,-2.4789,-2.4789,-2.4764,-2.4763,-2.4762,-2.4762,-2.4771,-2.4772,-2.4773,0,0,0,0,0,0,0,0,0,0,0,0,0,-2.4755,-2.4742,-2.4779,-2.4768,-2.4767,-2.4788,-2.4789,-2.4789,-2.4765,-2.4763,-2.4762,-2.4761,-2.4771,-2.4772,-2.4773,-2.4805,0,0,-2.4778,-2.4778,0,0,0,0,0,0,0,0,-2.4754,-2.4756,-2.477,-2.4769,-2.4768,-2.4774,-2.4778,-2.4794,-2.4765,-2.4766,-2.4762,-2.4761,-2.4773,-2.4774,-2.4778,-2.4806,-2.4806,-2.4778,-2.4779,-2.4779,-2.478,0,0,0,0,0,0,0,-2.4753,-2.4755,-2.4783,-2.477,-2.4769,-2.4763,-2.4764,-2.4781,-2.4776,-2.4765,-2.4764,-2.4765,-2.4772,-2.4777,-2.4778,-2.4806,-2.4778,-2.4779,-2.478,-2.4781,-2.486,-2.4861,0,0,0,0,0,0,-2.4753,-2.4755,-2.4782,-2.4783,-2.4758,-2.4765,-2.4766,-2.4773,-2.4775,-2.4775,-2.4766,-2.4764,-2.4775,-2.4777,-2.4779,-2.4815,-2.4779,-2.4781,-2.4782,-2.4859,-2.4861,-2.4862,0,0,0,0,0,0,-2.4753,-2.4756,-2.4782,-2.4768,-2.4771,-2.4767,-2.4776,-2.4774,-2.4779,-2.4776,-2.4775,-2.4772,-2.4774,-2.4777,-2.4799,-2.4815,-2.4781,-2.4783,-2.4858,-2.4859,-2.4861,-2.489,0,0,0,0,0,0,-2.4752,-2.4756,-2.4767,-2.4769,-2.4772,-2.4802,-2.4777,-2.4775,-2.4781,-2.4779,-2.4781,-2.478,-2.4774,-2.4797,-2.48,-2.4817,-2.4784,-2.4856,-2.4858,-2.4861,-2.4887,-2.4892,-2.4897,0,0,0,0,0,-2.475,-2.4775,-2.4768,-2.4772,-2.4787,-2.4803,-2.4805,-2.4796,-2.4783,-2.4794,-2.4793,-2.478,-2.4814,-2.4799,-2.4803,-2.482,-2.4855,-2.4858,-2.486,-2.4885,-2.4891,-2.4897,0,0,0,0,0,0,-2.4775,-2.4775,-2.4767,-2.4793,-2.4798,-2.4799,-2.4813,-2.4803,-2.4812,-2.4809,-2.4799,-2.48,-2.4824,-2.4825,-2.4808,-2.4851,-2.4832,-2.4836,-2.4849,-2.4855,-2.486,-2.4858,-2.4785,0,0,0,0,0,-2.4784,-2.4797,-2.4796,-2.4819,-2.4822,-2.4817,-2.4824,-2.4818,-2.4822,-2.4824,-2.4824,-2.4829,-2.4841,-2.4849,-2.4859,-2.4888,-2.4888,-2.4902,-2.4907,-2.4911,-2.4913,-2.4929,-2.4935,-2.4871,-2.4871,-2.4871,0,0,-2.4801,-2.4803,-2.4811,-2.4824,-2.4827,-2.4841,-2.4819,-2.4834,-2.4844,-2.4826,-2.4847,-2.4848,-2.4853,-2.4878,-2.489,-2.488,-2.4931,-2.4914,-2.4918,-2.4918,-2.4932,-2.4938,-2.4943,-2.4873,-2.4873,-2.4872,0,0,-2.484,-2.4843,-2.4862,-2.4866,-2.4871,-2.4868,-2.4873,-2.4875,-2.4875,-2.4896,-2.4883,-2.4895,-2.4915,-2.4919,-2.4924,-2.4967,-2.4955,-2.4971,-2.4995,-2.501,-2.5015,-2.5019,-2.5033,-2.5038,-2.4974,-2.4974,-2.4974,0,-2.486,-2.488,-2.4873,-2.4889,-2.4895,-2.4881,-2.49,-2.4905,-2.4913,-2.4918,-2.4907,-2.4933,-2.4935,-2.4961,-2.4972,-2.4977,-2.4982,-2.4969,-2.5015,-2.5019,-2.5023,-2.5036,-2.5042,-2.4976,-2.4976,-2.4976,-2.4975,0,-2.4905,-2.492,-2.4935,-2.4943,-2.4952,-2.497,-2.4965,-2.4974,-2.4968,-2.4967,-2.4988,-2.4991,-2.5002,-2.5009,-2.5002,-2.5034,-2.5028,-2.5016,-2.4996,-2.5031,-2.5043,-2.5048,-2.4978,-2.4978,-2.4977,-2.4977,0,0,-2.4957,-2.4963,-2.4968,-2.4972,-2.4978,-2.4989,-2.5007,-2.5018,-2.5026,-2.5033,-2.5047,-2.5066,-2.5056,-2.5061,-2.5056,-2.5069,-2.5102,-2.5056,-2.5056,-2.5063,-2.5136,-2.5143,-2.5149,-2.5096,-2.5097,-2.5097,-2.5135,0,-2.4993,-2.5023,-2.5018,-2.5048,-2.5061,-2.5048,-2.5064,-2.507,-2.5069,-2.5081,-2.5081,-2.5093,-2.5079,-2.5082,-2.5096,-2.5095,-2.5116,-2.5093,-2.5108,-2.5108,-2.5104,-2.5156,-2.5163,-2.5199,-2.514,-2.5141,-2.5142,0,-2.5039,-2.5049,-2.5079,-2.5084,-2.5089,-2.5103,-2.5113,-2.5124,-2.5131,-2.513,-2.5137,-2.513,-2.5148,-2.513,-2.5154,-2.5139,-2.5145,-2.5146,-2.5148,-2.5147,-2.5125,-2.5155,-2.521,-2.5215,-2.5149,-2.5149,-2.5148,0,-2.5072,-2.5092,-2.5113,-2.5117,-2.5124,-2.5134,-2.5137,-2.5142,-2.515,-2.5159,-2.5163,-2.5175,-2.5181,-2.519,-2.5186,-2.5174,-2.5212,-2.5193,-2.5211,-2.5211,-2.5217,-2.5216,-2.5272,-2.5225,-2.5225,-2.5225,-2.5224,0,-2.5112,-2.5131,-2.5128,-2.514,-2.5162,-2.5157,-2.5177,-2.5179,-2.5185,-2.5197,-2.5189,-2.5201,-2.5196,-2.5208,-2.5206,-2.5226,-2.523,-2.5229,-2.5227,-2.5228,-2.5228,-2.523,-2.5227,-2.5226,-2.5226,-2.5225,-2.5225,0,-2.5151,-2.515,-2.5171,-2.5176,-2.5178,-2.5193,-2.5197,-2.5209,-2.5209,-2.5226,-2.5229,-2.5229,-2.5243,-2.5241,-2.5257,-2.5255,-2.528,-2.5277,-2.5278,-2.5276,-2.5293,-2.5291,-2.5351,-2.5358,-2.5308,-2.5309,-2.5309,0,-2.5175,-2.5189,-2.5196,-2.5204,-2.5208,-2.5221,-2.5229,-2.5226,-2.5234,-2.5243,-2.5254,-2.5268,-2.5278,-2.5301,-2.5302,-2.5315,-2.531,-2.5331,-2.5312,-2.5312,-2.5309,-2.5307,-2.5308,-2.5333,-2.5334,-2.5335,-2.5335,0,-2.5218,-2.5218,-2.5229,-2.5241,-2.525,-2.5259,-2.5267,-2.5274,-2.5272,-2.5282,-2.5296,-2.5304,-2.5321,-2.5334,-2.5346,-2.5349,-2.5341,-2.5341,-2.5346,-2.5345,-2.5345,-2.5344,-2.5286,-2.5339,-2.5339,-2.5338,-2.5338,-2.5338,-2.5249,-2.5261,-2.5268,-2.5281,-2.5288,-2.5296,-2.5307,-2.5309,-2.5321,-2.5334,-2.5332,-2.5348,-2.5356,-2.5371,-2.5376,-2.5388,-2.5381,-2.5387,-2.5389,-2.539,-2.5391,-2.5345,-2.5391,-2.5391,-2.539,-2.539,-2.539,0,-2.5291,-2.5295,-2.5307,-2.5319,-2.533,-2.5323,-2.5332,-2.5341,-2.5356,-2.5364,-2.5374,-2.5391,-2.5404,-2.5408,-2.5421,-2.543,-2.5427,-2.5434,-2.5432,-2.5432,-2.5398,-2.5392,-2.5436,-2.5436,-2.5436,-2.5436,-2.5436,-2.5436,-2.5313,-2.5333,-2.5334,-2.5357,-2.5361,-2.5377,-2.5383,-2.539,-2.5396,-2.5415,-2.5427,-2.5429,-2.5435,-2.5449,-2.5461,-2.5462,-2.5466,-2.5474,-2.5473,-2.544,-2.5435,-2.543,-2.5425,-2.5475,-2.5475,-2.5506,-2.5506,-2.5506]},{"header":{"parameterUnit":"m.s-1","parameterCategory":1,"la1":30.2991,"la2":30.254,"lo1":-89.0895,"lo2":-89.0444,"dy":0.0017,"dx":0.0017,"nx":28,"ny":28,"refTime":"2025-04-29T03:00:00:Z","depth":0,"parameterNumber":3,"parameterNumberName":"V-component_of_WINDS"},"data":[0,0,0,0,0,0,0,0,0,0,0,0,0,0,0,0,0,0,0,0,0,0,0,0,0,0,0,0,0,0,0,0,0,0,0,0,0,0,0,0,0,0,0,0,0,0,0,0,0,0,0,0,0,0,0,0,0,0,2.9847,2.9847,0,2.985,2.985,2.985,2.9902,2.9904,2.9905,2.9906,2.9904,2.9903,2.9902,0,0,0,0,0,0,0,0,0,0,0,0,0,2.9879,2.9878,2.9847,2.9847,2.9847,2.985,2.985,2.985,2.9902,2.9904,2.9905,2.9907,2.9905,2.9903,2.9902,0,0,0,0,0,0,0,0,0,0,0,0,0,2.9872,2.9878,2.9846,2.9873,2.9875,2.985,2.985,2.985,2.9902,2.9904,2.9906,2.9908,2.9905,2.9903,2.9901,2.9849,0,0,2.9895,2.9895,0,0,0,0,0,0,0,0,2.9872,2.9871,2.9869,2.9871,2.9874,2.9878,2.9861,2.985,2.9901,2.9892,2.9906,2.9909,2.9894,2.9893,2.9889,2.9849,2.9849,2.9895,2.9894,2.9893,2.9893,0,0,0,0,0,0,0,2.9873,2.9871,2.9848,2.9869,2.9872,2.9883,2.9884,2.9859,2.9881,2.9893,2.9896,2.9897,2.9895,2.9891,2.9889,2.9849,2.9895,2.9894,2.9892,2.9892,2.9769,2.9767,0,0,0,0,0,0,2.987,2.9871,2.9848,2.9848,2.9878,2.9881,2.9882,2.9875,2.9882,2.9885,2.9895,2.9899,2.9893,2.9891,2.9889,2.983,2.9893,2.9891,2.989,2.9771,2.9768,2.9766,0,0,0,0,0,0,2.9871,2.9868,2.9848,2.9861,2.9859,2.9878,2.9869,2.9874,2.9869,2.9883,2.9887,2.9886,2.9894,2.9892,2.986,2.9831,2.9891,2.9889,2.9773,2.977,2.9767,2.9711,0,0,0,0,0,0,2.9872,2.9868,2.9849,2.986,2.9858,2.9819,2.9867,2.9872,2.9866,2.9872,2.9876,2.9879,2.9896,2.9862,2.9858,2.9829,2.9887,2.9776,2.9772,2.9768,2.9715,2.9706,2.9698,0,0,0,0,0,2.9873,2.9831,2.9848,2.9845,2.9836,2.9817,2.9816,2.9838,2.9864,2.9845,2.9854,2.9879,2.9835,2.9859,2.9854,2.9824,2.9778,2.9773,2.9768,2.9719,2.9708,2.9698,0,0,0,0,0,0,2.9814,2.9833,2.9852,2.9813,2.9814,2.9826,2.9803,2.9825,2.9817,2.9822,2.9848,2.9848,2.9812,2.9815,2.9841,2.9775,2.9811,2.9805,2.9775,2.9764,2.9756,2.9756,2.9886,0,0,0,0,0,2.9797,2.9783,2.9799,2.9763,2.9763,2.9783,2.9776,2.9793,2.9793,2.9793,2.98,2.9798,2.9784,2.9774,2.9762,2.9716,2.9718,2.9693,2.9684,2.9677,2.9672,2.9649,2.9639,2.975,2.975,2.9751,0,0,2.9761,2.977,2.9759,2.9752,2.9755,2.9738,2.9782,2.9762,2.975,2.9789,2.9761,2.9765,2.9765,2.9726,2.9709,2.9727,2.9642,2.9671,2.9666,2.9664,2.9643,2.9632,2.9623,2.9747,2.9748,2.9748,0,0,2.9688,2.9692,2.9664,2.9666,2.967,2.9684,2.9677,2.9687,2.9692,2.9664,2.9694,2.9678,2.9653,2.9653,2.9649,2.9576,2.9599,2.9571,2.9526,2.9504,2.9495,2.9487,2.9462,2.9453,2.9566,2.9565,2.9565,0,2.9642,2.962,2.9646,2.9625,2.9621,2.9659,2.963,2.963,2.9628,2.9624,2.9645,2.9616,2.9618,2.958,2.9563,2.9558,2.9551,2.9571,2.9494,2.9487,2.948,2.9457,2.9447,2.9562,2.9563,2.9563,2.9563,0,2.9564,2.9547,2.9524,2.9525,2.9518,2.9493,2.9514,2.9504,2.9522,2.9533,2.9504,2.9508,2.9499,2.9491,2.9506,2.9455,2.9466,2.949,2.9527,2.9466,2.9444,2.9435,2.9557,2.9559,2.956,2.956,0,0,2.9452,2.947,2.9461,2.9462,2.947,2.9457,2.9433,2.9426,2.9417,2.9415,2.9396,2.9375,2.9398,2.9393,2.9409,2.9389,2.9333,2.9416,2.9416,2.9401,2.9278,2.926,2.9249,2.9348,2.9347,2.9345,2.9278,0,2.9382,2.9345,2.9369,2.9327,2.9313,2.9349,2.9329,2.933,2.934,2.9329,2.9339,2.9324,2.9355,2.9353,2.9334,2.9344,2.9309,2.9349,2.933,2.9329,2.933,2.9238,2.9219,2.9155,2.927,2.9268,2.9267,0,2.9296,2.9293,2.925,2.9263,2.9258,2.9239,2.9235,2.9223,2.9226,2.9234,2.9231,2.9252,2.9229,2.9265,2.9233,2.926,2.9254,2.9257,2.9255,2.9255,2.9295,2.9235,2.9135,2.9126,2.9254,2.9255,2.9256,0,2.922,2.9205,2.9179,2.9179,2.9192,2.9178,2.9182,2.9187,2.9182,2.9177,2.9174,2.9166,2.9161,2.9154,2.9173,2.9197,2.9139,2.9176,2.9145,2.9145,2.9131,2.9132,2.9029,2.9126,2.9126,2.9126,2.9126,0,2.914,2.9113,2.9146,2.9129,2.91,2.9127,2.9096,2.9104,2.9109,2.9094,2.9123,2.9108,2.9134,2.9121,2.9135,2.9107,2.9105,2.9111,2.9115,2.9108,2.9108,2.9105,2.911,2.9124,2.9124,2.9125,2.9125,0,2.9051,2.9072,2.9045,2.9061,2.9064,2.9042,2.9054,2.9039,2.9052,2.9032,2.9029,2.9048,2.9035,2.9053,2.9041,2.905,2.9013,2.9023,2.9012,2.9016,2.8984,2.8987,2.8876,2.8864,2.8967,2.8966,2.8965,0,2.8999,2.898,2.8994,2.8987,2.899,2.8978,2.8974,2.8999,2.8993,2.8995,2.898,2.897,2.8963,2.894,2.8951,2.8942,2.8953,2.8915,2.8952,2.8947,2.8954,2.8955,2.8954,2.8908,2.8906,2.8905,2.8904,0,2.8905,2.8916,2.8909,2.8906,2.89,2.8898,2.8898,2.8891,2.8917,2.8908,2.8897,2.8891,2.8881,2.887,2.8864,2.8867,2.889,2.8893,2.8885,2.8879,2.8874,2.8877,2.8993,2.8895,2.8896,2.8897,2.8897,2.8898,2.8833,2.8818,2.8826,2.8818,2.8821,2.8821,2.8808,2.882,2.8811,2.8806,2.8821,2.8805,2.8809,2.8804,2.8805,2.8793,2.8809,2.8798,2.8795,2.8792,2.8788,2.8876,2.8791,2.8792,2.8792,2.8792,2.8792,0,2.8741,2.8749,2.8741,2.8741,2.8734,2.8759,2.876,2.8752,2.8739,2.8742,2.8735,2.8722,2.8712,2.8724,2.8716,2.8704,2.8714,2.8701,2.8702,2.8703,2.8773,2.8781,2.8693,2.8693,2.8693,2.8693,2.8693,2.8693,2.8693,2.8669,2.8682,2.866,2.8667,2.8654,2.8653,2.8653,2.8655,2.8639,2.8632,2.8641,2.8647,2.864,2.8632,2.8636,2.8631,2.8615,2.8622,2.8688,2.8697,2.8707,2.8714,2.8613,2.8613,2.8553,2.8552,2.8552]}]]